Ord, NE

10:19 AM CDT on May 25, 2017 (GMT -0500)
Sharp

Weather History for KODX - September, 2012

Change the Weather History Date:

Wednesday, September 12, 2012

  Actual Average Record
Temperature  
Mean Temperature 59 °F 65 °F  
Max Temperature 70 °F 80 °F 93 °F (2011)
Min Temperature 47 °F 51 °F 37 °F (2014)
Degree Days  
Heating Degree Days 6 3  
Month to date heating degree days 20 20  
Since 1 July heating degree days 31 34  
Cooling Degree Days 0 3  
Month to date cooling degree days 76 53  
Year to date cooling degree days 1218 810  
Growing Degree Days 11 (Base 50)    
Moisture  
Dew Point 46 °F    
Average Humidity 62    
Maximum Humidity 93    
Minimum Humidity 30    
Precipitation  
Precipitation 0.09 in 0.09 in 1.62 in (1951)
Month to date precipitation 0.13 1.07  
Year to date precipitation 11.05 19.98  
Sea Level Pressure  
Sea Level Pressure 30.18 in    
Wind  
Wind Speed 12 mph (NNE)    
Max Wind Speed 28 mph    
Max Gust Speed 35 mph    
Visibility 10 miles    
Events Rain    
T = Trace of Precipitation, MM = Missing Value Source: NWS Daily Summary

Daily Weather History Graph

Daily Weather History Graph

Search for Another Location

Airport or City:

Trip Planner

Search our weather history database for the weather conditions in past years. The results will help you decide how hot, cold, wet, or windy it might be!

Date:

Astronomy

Sep. 12, 2012 Rise Set
Actual Time 7:13 AM CDT 7:49 PM CDT
Civil Twilight 6:45 AM CDT 8:17 PM CDT
Nautical Twilight 6:12 AM CDT 8:50 PM CDT
Astronomical Twilight 5:38 AM CDT 9:24 PM CDT
Moon 3:29 AM CDT (9/12) 5:39 PM CDT (9/12)
Length of Visible Light 13h 31m
Length of Day
12h 35m
Waning Crescent, 13% of the Moon is Illuminated
Sep 12
Waning Crescent
Sep 15
New
Sep 22
First Quarter
Sep 29
Full
Oct 8
Last Quarter

Hourly Weather History & Observations

Time (CDT) Temp. Dew Point Humidity Pressure Visibility Wind Dir Wind Speed Gust Speed Precip Events Conditions
12:53 AM 70.0 °F 43.0 °F 38% 29.88 in 10.0 mi North 15.0 mph 21.9 mph N/A   Clear
1:53 AM 69.1 °F 37.9 °F 32% 29.90 in 10.0 mi NNE 16.1 mph 27.6 mph N/A   Clear
2:53 AM 68.0 °F 35.1 °F 30% 29.92 in 10.0 mi NNE 16.1 mph 28.8 mph N/A   Clear
3:53 AM 64.0 °F 37.0 °F 37% 29.95 in 10.0 mi North 18.4 mph 34.5 mph N/A   Clear
4:53 AM 62.1 °F 39.9 °F 44% 29.98 in 10.0 mi NNE 13.8 mph 26.5 mph N/A   Clear
5:53 AM 62.1 °F 37.9 °F 41% 29.98 in 10.0 mi NNE 18.4 mph 31.1 mph N/A   Partly Cloudy
6:53 AM 61.0 °F 37.9 °F 42% 30.04 in 10.0 mi NNE 15.0 mph 24.2 mph 0.00 in   Clear
7:53 AM 60.1 °F 36.0 °F 41% 30.06 in 10.0 mi NNE 19.6 mph 28.8 mph 0.00 in   Partly Cloudy
8:53 AM 62.1 °F 33.1 °F 34% 30.12 in 10.0 mi North 16.1 mph 27.6 mph N/A   Partly Cloudy
9:53 AM 63.0 °F 34.0 °F 34% 30.13 in 10.0 mi NNE 16.1 mph 26.5 mph N/A   Overcast
10:53 AM 62.1 °F 39.0 °F 43% 30.18 in 10.0 mi NNE 9.2 mph - 0.00 in   Overcast
11:53 AM 60.1 °F 45.0 °F 57% 30.15 in 10.0 mi NNE 15.0 mph - 0.00 in Rain Light Rain
12:53 PM 59.0 °F 46.0 °F 62% 30.17 in 10.0 mi NE 17.3 mph 24.2 mph 0.01 in   Overcast
1:53 PM 57.0 °F 48.9 °F 74% 30.18 in 10.0 mi ENE 11.5 mph - 0.00 in   Overcast
3:00 PM 55.4 °F 51.8 °F 88% 30.22 in 10.0 mi North 13.8 mph - 0.00 in Rain Light Rain
3:31 PM 55.4 °F 51.8 °F 88% 30.23 in 10.0 mi NNE 15.0 mph 24.2 mph 0.00 in   Overcast
3:53 PM 55.4 °F 50.0 °F 82% 30.26 in 10.0 mi NE 10.4 mph 25.3 mph N/A   Overcast
4:53 PM 54.0 °F 51.1 °F 90% 30.25 in 10.0 mi NE 10.4 mph - 0.03 in Rain Light Rain
5:20 PM 53.6 °F 51.8 °F 94% 30.27 in 10.0 mi NE 8.1 mph - 0.00 in Rain Light Rain
5:27 PM 53.6 °F 51.8 °F 94% 30.26 in 10.0 mi NE 8.1 mph - 0.00 in Rain Light Rain
5:53 PM 54.0 °F 51.1 °F 90% 30.27 in 8.0 mi NE 10.4 mph - 0.01 in Rain Light Rain
6:30 PM 53.6 °F 51.8 °F 94% 30.27 in 5.0 mi NE 4.6 mph - 0.02 in Rain Light Rain
6:49 PM 53.6 °F 51.8 °F 94% 30.28 in 7.0 mi Calm Calm - N/A Rain Light Rain
6:53 PM 53.1 °F 51.1 °F 93% 30.28 in 7.0 mi NE 5.8 mph - 0.02 in Rain Light Rain
7:09 PM 53.6 °F 51.8 °F 94% 30.28 in 8.0 mi NNE 4.6 mph - 0.01 in Rain Light Rain
7:16 PM 53.6 °F 51.8 °F 94% 30.29 in 8.0 mi North 8.1 mph - 0.01 in Rain Light Rain
7:31 PM 53.6 °F 51.8 °F 94% 30.29 in 10.0 mi North 6.9 mph - N/A   Overcast
7:42 PM 53.6 °F 51.8 °F 94% 30.29 in 10.0 mi North 8.1 mph - 0.01 in   Overcast
7:53 PM 53.1 °F 51.1 °F 93% 30.29 in 10.0 mi NNE 5.8 mph - 0.01 in   Overcast
8:17 PM 53.6 °F 51.8 °F 94% 30.29 in 10.0 mi North 8.1 mph - N/A   Mostly Cloudy
8:53 PM 53.1 °F 51.1 °F 93% 30.29 in 10.0 mi North 5.8 mph - N/A   Clear
9:53 PM 53.1 °F 50.0 °F 89% 30.30 in 10.0 mi NNW 8.1 mph - N/A   Clear
10:53 PM 52.0 °F 48.9 °F 89% 30.31 in 10.0 mi North 4.6 mph - N/A   Clear
11:53 PM 50.0 °F 48.0 °F 93% 30.34 in 10.0 mi Calm Calm - N/A   Clear